HYLAS 2

Last updated on Sun Nov 02 2025 00:02:48 GMT+0000 (Coordinated Universal Time)

1 38741U 12043B 25305.51727759 -.00000245 00000+0 00000+0 0 9991 2 38741 1.8341 83.8439 0003762 165.5889 265.3716 1.00271085 48496
UTC large
Height (km)
Speed (km/s)
/
Latitude / Longitude
Inclination (degrees)
Orbital Period (minutes)
Azimuth
Elevation
Range (km)
Doppler Factor

Next 0 passes for location: London (51.5072 / 0.1276)

Sorry there are no passes over London.